TimeEDT,TemperatureF,Dew PointF,Humidity,Sea Level PressureIn,VisibilityMPH,Wind Direction,Wind SpeedMPH,Gust SpeedMPH,PrecipitationIn,Events,Conditions,WindDirDegrees,DateUTC
12:15 AM,63.7,47.5,56,30.02,10.0,SSW,6.9,-,N/A,,Mostly Cloudy,200,2013-04-08 04:15:00
12:35 AM,63.0,47.5,57,30.03,10.0,SSW,5.8,-,N/A,,Mostly Cloudy,210,2013-04-08 04:35:00
12:55 AM,62.2,47.5,58,30.03,10.0,SSW,6.9,-,N/A,,Clear,210,2013-04-08 04:55:00
1:15 AM,61.7,47.5,60,30.03,10.0,SW,5.8,-,N/A,,Clear,220,2013-04-08 05:15:00
1:35 AM,61.7,47.7,60,30.03,10.0,SSW,6.9,-,N/A,,Clear,210,2013-04-08 05:35:00
1:55 AM,61.3,47.7,61,30.03,10.0,SSW,5.8,-,N/A,,Clear,210,2013-04-08 05:55:00
2:15 AM,60.3,47.7,63,30.03,10.0,SW,4.6,-,N/A,,Clear,230,2013-04-08 06:15:00
2:35 AM,60.1,47.7,64,30.03,10.0,SSW,5.8,-,N/A,,Clear,210,2013-04-08 06:35:00
2:55 AM,59.0,47.5,66,30.03,10.0,SW,4.6,-,N/A,,Clear,220,2013-04-08 06:55:00
3:15 AM,58.8,47.5,66,30.03,10.0,SSW,4.6,-,N/A,,Clear,210,2013-04-08 07:15:00
3:35 AM,59.0,47.5,66,30.02,10.0,SSW,5.8,-,N/A,,Scattered Clouds,200,2013-04-08 07:35:00
3:55 AM,57.9,47.3,68,30.02,10.0,SSW,3.5,-,N/A,,Clear,200,2013-04-08 07:55:00
4:15 AM,56.8,47.3,70,30.02,10.0,SSW,4.6,-,N/A,,Clear,200,2013-04-08 08:15:00
4:35 AM,57.0,47.7,71,30.02,10.0,SSW,5.8,-,N/A,,Mostly Cloudy,210,2013-04-08 08:35:00
4:55 AM,57.6,47.7,70,30.02,10.0,SSW,4.6,-,N/A,,Overcast,210,2013-04-08 08:55:00
5:15 AM,57.2,47.5,70,30.03,10.0,SW,3.5,-,N/A,,Mostly Cloudy,230,2013-04-08 09:15:00
5:35 AM,54.7,47.3,76,30.03,10.0,Calm,Calm,-,N/A,,Scattered Clouds,0,2013-04-08 09:35:00
5:55 AM,51.8,46.6,82,30.03,10.0,SSW,3.5,-,N/A,,Scattered Clouds,200,2013-04-08 09:55:00
6:15 AM,49.5,45.3,86,30.03,10.0,Calm,Calm,-,N/A,,Clear,0,2013-04-08 10:15:00
6:35 AM,50.0,45.5,85,30.04,10.0,Calm,Calm,-,N/A,,Clear,0,2013-04-08 10:35:00
6:55 AM,48.7,44.8,86,30.04,10.0,Calm,Calm,-,N/A,,Clear,0,2013-04-08 10:55:00
7:15 AM,47.7,45.5,92,30.05,10.0,Calm,Calm,-,N/A,,Clear,0,2013-04-08 11:15:00
7:35 AM,48.9,46.2,90,30.06,10.0,Calm,Calm,-,N/A,,Clear,0,2013-04-08 11:35:00
7:55 AM,52.9,49.5,88,30.07,10.0,Calm,Calm,-,N/A,,Clear,0,2013-04-08 11:55:00
8:15 AM,57.7,49.3,73,30.08,10.0,WSW,3.5,-,N/A,,Clear,240,2013-04-08 12:15:00
8:35 AM,59.4,49.8,71,30.08,10.0,Calm,Calm,-,N/A,,Clear,0,2013-04-08 12:35:00
8:55 AM,60.8,50.2,68,30.07,10.0,WSW,3.5,-,N/A,,Clear,250,2013-04-08 12:55:00
9:15 AM,61.9,51.1,68,30.07,10.0,Calm,Calm,-,N/A,,Clear,0,2013-04-08 13:15:00
9:35 AM,63.3,51.1,64,30.08,10.0,SW,4.6,-,N/A,,Clear,220,2013-04-08 13:35:00
9:55 AM,65.7,52.0,61,30.08,10.0,WSW,5.8,-,N/A,,Clear,240,2013-04-08 13:55:00
10:15 AM,67.5,52.9,59,30.09,10.0,West,5.8,-,N/A,,Clear,270,2013-04-08 14:15:00
10:35 AM,68.5,53.6,59,30.09,10.0,West,3.5,-,N/A,,Mostly Cloudy,260,2013-04-08 14:35:00
10:55 AM,70.0,53.6,56,30.08,10.0,West,3.5,-,N/A,,Mostly Cloudy,260,2013-04-08 14:55:00
11:15 AM,72.0,54.5,54,30.08,10.0,Calm,Calm,-,N/A,,Scattered Clouds,0,2013-04-08 15:15:00
11:35 AM,72.7,54.3,52,30.07,10.0,SSW,3.5,-,N/A,,Clear,210,2013-04-08 15:35:00
11:55 AM,75.2,55.2,50,30.07,10.0,SSE,4.6,-,N/A,,Clear,160,2013-04-08 15:55:00
12:15 PM,77.4,54.1,44,30.06,10.0,South,4.6,-,N/A,,Clear,190,2013-04-08 16:15:00
12:35 PM,78.3,53.8,43,30.05,10.0,South,5.8,-,N/A,,Clear,190,2013-04-08 16:35:00
12:55 PM,79.9,52.3,38,30.04,10.0,SSE,4.6,-,N/A,,Clear,160,2013-04-08 16:55:00
1:15 PM,80.6,52.7,38,30.03,10.0,South,3.5,-,N/A,,Scattered Clouds,190,2013-04-08 17:15:00
1:35 PM,81.3,52.9,37,30.03,10.0,SSE,9.2,-,N/A,,Scattered Clouds,150,2013-04-08 17:35:00
1:55 PM,81.5,52.3,36,30.02,10.0,SW,3.5,-,N/A,,Clear,230,2013-04-08 17:55:00
2:15 PM,82.2,53.4,37,30.01,10.0,SW,5.8,-,N/A,,Clear,230,2013-04-08 18:15:00
2:35 PM,82.2,52.9,36,30.00,10.0,South,9.2,-,N/A,,Clear,190,2013-04-08 18:35:00
2:55 PM,82.8,52.7,35,30.00,10.0,SSW,9.2,18.4,N/A,,Clear,200,2013-04-08 18:55:00
3:15 PM,83.3,53.4,36,29.99,10.0,SSW,12.7,19.6,N/A,,Clear,200,2013-04-08 19:15:00
3:35 PM,82.9,52.9,35,29.98,10.0,SW,12.7,20.7,N/A,,Clear,220,2013-04-08 19:35:00
3:55 PM,82.8,52.9,36,29.97,10.0,SSW,15.0,25.3,N/A,,Clear,210,2013-04-08 19:55:00
4:15 PM,82.6,53.4,36,29.96,10.0,SSW,15.0,19.6,N/A,,Scattered Clouds,200,2013-04-08 20:15:00
4:35 PM,82.4,53.2,36,29.95,10.0,SSW,9.2,16.1,N/A,,Clear,200,2013-04-08 20:35:00
4:55 PM,82.9,53.8,36,29.95,10.0,SW,8.1,19.6,N/A,,Clear,220,2013-04-08 20:55:00
5:15 PM,81.7,53.2,37,29.95,10.0,South,15.0,-,N/A,,Clear,190,2013-04-08 21:15:00
5:35 PM,81.9,53.1,37,29.94,10.0,South,12.7,18.4,N/A,,Clear,190,2013-04-08 21:35:00
5:55 PM,81.1,53.4,38,29.95,10.0,SSW,11.5,18.4,N/A,,Clear,200,2013-04-08 21:55:00
6:15 PM,80.8,53.6,39,29.95,10.0,South,13.8,19.6,N/A,,Clear,190,2013-04-08 22:15:00
6:35 PM,80.4,53.6,39,29.95,10.0,South,8.1,-,N/A,,Clear,190,2013-04-08 22:35:00
6:55 PM,79.2,53.2,41,29.95,10.0,South,8.1,-,N/A,,Clear,190,2013-04-08 22:55:00
7:15 PM,77.9,52.9,42,29.95,10.0,South,6.9,10.4,N/A,,Clear,190,2013-04-08 23:15:00
7:35 PM,77.0,52.7,43,29.96,10.0,South,5.8,-,N/A,,Clear,180,2013-04-08 23:35:00
7:55 PM,75.9,52.5,44,29.97,10.0,South,5.8,-,N/A,,Clear,190,2013-04-08 23:55:00
8:15 PM,75.2,52.7,45,29.97,10.0,South,4.6,-,N/A,,Clear,180,2013-04-09 00:15:00
8:35 PM,73.8,52.7,48,29.97,10.0,SSE,5.8,-,N/A,,Clear,160,2013-04-09 00:35:00
8:55 PM,73.2,52.9,49,29.97,10.0,South,5.8,-,N/A,,Clear,170,2013-04-09 00:55:00
9:15 PM,72.7,53.2,50,29.98,10.0,South,5.8,-,N/A,,Clear,180,2013-04-09 01:15:00
9:35 PM,72.9,53.2,50,29.98,10.0,South,5.8,-,N/A,,Clear,170,2013-04-09 01:35:00
9:55 PM,73.0,53.6,50,29.99,10.0,South,5.8,-,N/A,,Clear,190,2013-04-09 01:55:00
10:15 PM,72.7,53.8,51,29.99,10.0,South,8.1,-,N/A,,Clear,190,2013-04-09 02:15:00
10:35 PM,72.5,54.3,53,29.99,10.0,South,8.1,-,N/A,,Clear,190,2013-04-09 02:35:00
10:55 PM,72.5,54.5,53,29.99,10.0,South,8.1,-,N/A,,Clear,190,2013-04-09 02:55:00
11:15 PM,72.0,54.9,55,29.98,10.0,SSW,6.9,-,N/A,,Clear,200,2013-04-09 03:15:00
11:35 PM,72.1,55.2,55,29.98,10.0,South,6.9,-,N/A,,Clear,190,2013-04-09 03:35:00
11:55 PM,72.1,55.4,56,29.99,10.0,SSW,9.2,-,N/A,,Clear,200,2013-04-09 03:55:00